Regional Weather Roundup
Issued by NWS

Home | Current Version | Previous Version | Text Only | Print | Product List | Glossary Off
Versions: 1 2 3 4 5 6 7 8 9 10 11 12 13 14 15 16 17 18 19 20 21 22 23 24 25 26 27 28 29 30 31 32 33 34 35 36 37 38 39 40 41 42 43 44 45 46 47 48 49 50

000
ASUS43 KLOT 110010
RWRIL

ILLINOIS REGIONAL WEATHER ROUNDUP
NATIONAL WEATHER SERVICE CHICAGO/ROMEOVILLE IL
700 PM CDT THU JUL 10 2014

NOTE: "FAIR" INDICATES FEW OR NO CLOUDS BELOW 12,000 FEET WITH NO
SIGNIFICANT WEATHER AND/OR OBSTRUCTIONS TO VISIBILITY.

* THESE STATIONS ARE NOT UNDER NWS QUALITY CONTROL. THEY ALSO MAY NOT
  REPORT WEATHER SUCH AS PRECIPITATION OR FOG.

ILZ001-002-007-009-015-016-024-110100-
NORTHWEST ILLINOIS

CITY           SKY/WX    TMP DP  RH WIND       PRES   REMARKS
MOLINE         SUNNY     78  59  51 SE7       30.09S
6HR MIN TEMP:  78; 6HR MAX TEMP:  83;

STERLING*      SUNNY     79  59  50 S5        30.12S HX  80
SAVANNA*       SUNNY     79  59  49 SE7       30.10S HX  80
$$

ILZ003-004-008-010-011-017-018-110100-
NORTH CENTRAL ILLINOIS

CITY           SKY/WX    TMP DP  RH WIND       PRES   REMARKS
ROCKFORD       MOSUNNY   77  57  50 S10       30.13S
6HR MIN TEMP:  75; 6HR MAX TEMP:  80;

FREEPORT*      SUNNY     76  61  60 S6        30.14S
ROCHELLE*      SUNNY     75  59  56 SE6       30.13S
DE KALB*       SUNNY     74  57  55 S5        30.14F
PERU*          MOSUNNY   78  55  45 SE8       30.13S
$$

ILZ005-006-012>014-019>023-110100-
NORTHEAST ILLINOIS

CITY           SKY/WX    TMP DP  RH WIND       PRES   REMARKS
CHICAGO-OHARE  MOSUNNY   74  50  42 E12       30.14S
6HR MIN TEMP:  74; 6HR MAX TEMP:  79;

CHICAGO-MIDWAY MOSUNNY   75  50  41 E10       30.15S
6HR MIN TEMP:  74; 6HR MAX TEMP:  78;

AURORA         MOSUNNY   77  57  50 SE10      30.13S
6HR MIN TEMP:  76; 6HR MAX TEMP:  80;

LANSING*       SUNNY     72  46  39 E3        30.16R
JOLIET*        SUNNY     75  54  48 SE8       30.14S
WAUKEGAN       SUNNY     68  53  58 SE7       30.15R
6HR MIN TEMP:  68; 6HR MAX TEMP:  71;

DUPAGE AIRPORT SUNNY     76  55  48 SE9       30.13S
6HR MIN TEMP:  75; 6HR MAX TEMP:  82;

KANKAKEE*      SUNNY     74  57  56 NE9       30.14S
WHEELING       SUNNY     73  52  47 E8        30.16S
6HR MIN TEMP:  73; 6HR MAX TEMP:  77;

MORRIS*        MOSUNNY   78  59  52 CALM      30.13S
ROMEOVILLE*    SUNNY     74  53  48 E8        30.14S
NORTHERLY ISL    N/A     69  55  60 E6          N/A
$$

LMZ740>746-110100-
SOUTHERN LAKE MICHIGAN

STATION/POSITION SKY/WX   TEMP    WIND        PRES    VSBY  WAVE
                          AIR SEA DIR/SP/G                  HT/PER
                          (F)     (DEG/KT/KT) (MB)    (MI)  (FT/S)
SOUTHERN BUOY              64 62   CALM  /  2 1021.2F         0
WAUKEGAN HARBOR            70     140/  8/  9 1022.0S
HARRISON CRIB              69     110/  8/  9   N/A
BURNHAM HARBOR             69     110/  6/  8   N/A
CALUMET HARBOR             70      80/  6/  8 1021.9S
MICHIGAN CITY              69      40/  8/  9   N/A
$$

ILZ025>027-034>036-040-047-049-050-058-095>099-110100-
WEST-CENTRAL ILLINOIS

CITY           SKY/WX    TMP DP  RH WIND       PRES   REMARKS
QUINCY         SUNNY     78  56  46 SE8       30.10S
GALESBURG*     SUNNY     79  59  49 SE3       30.11S HX  80
MACOMB*        SUNNY     75  60  59 SE5       30.13S
JACKSONVILLE*  SUNNY     79  60  51 E6        30.12S HX  80
PITTSFIELD*    SUNNY     78  59  51 E5        30.11S
$$

ILZ028>032-037-038-041>044-048-051>054-059>061-110100-
CENTRAL ILLINOIS

CITY           SKY/WX    TMP DP  RH WIND       PRES   REMARKS
PONTIAC        SUNNY     77  57  50 E3        30.13S
BLOOMINGTON    SUNNY     76  56  49 E5        30.15S
DECATUR        SUNNY     77  57  50 E6        30.13S
PEORIA         SUNNY     78  57  48 SE5       30.12S
6HR MIN TEMP:  78; 6HR MAX TEMP:  83;

LACON*         SUNNY     77  56  47 SE6       30.11S
LINCOLN*       SUNNY     78  57  48 E5        30.10R
SPRINGFIELD    SUNNY     79  54  41 E12       30.12S
6HR MIN TEMP:  79; 6HR MAX TEMP:  82;

TAYLORVILLE    SUNNY     77  54  44 E7        30.12S
$$

ILZ033-039-045-046-055>057-062-063-110100-
EAST-CENTRAL ILLINOIS

CITY           SKY/WX    TMP DP  RH WIND       PRES   REMARKS
CHAMPAIGN      SUNNY     76  56  49 E8        30.14S
RANTOUL*       SUNNY     78  53  42 E5        30.15S
MATTOON        SUNNY     77  53  43 NE6       30.12R
PARIS*         SUNNY     76  57  52 CALM      30.14R
$$

ILZ079-100>102-110100-
SOUTHWEST ILLINOIS

CITY           SKY/WX    TMP DP  RH WIND       PRES   REMARKS
ALTON          MOSUNNY   77  61  57 E6        30.10S
BELLEVILLE     SUNNY     82  58  45 NE3       30.09R HX  82
CAHOKIA*       SUNNY     82  56  40 E7        30.09R HX  82
SPARTA*        PTSUNNY   79  59  50 CALM      30.10R HX  80
$$

ILZ064>066-069>071-074>076-080>082-084>086-088>090-092>094-110100-
SOUTH-CENTRAL ILLINOIS

CITY           SKY/WX    TMP DP  RH WIND       PRES   REMARKS
CARBONDALE     PTSUNNY   79  66  64 CALM      30.08S HX  81
6HR MIN TEMP:  79; 6HR MAX TEMP:  83;

CAIRO*         PTSUNNY   84  65  53 NE5       30.07S HX  86
MARION         PTSUNNY   77  68  73 CALM      30.09S
MT. VERNON     SUNNY     79  59  50 N3        30.10R HX  80
CENTRALIA*     SUNNY     85  54  33 CALM      30.10S HX  83
SALEM*         SUNNY     82  57  42 N5        30.11R HX  81
METROPOLIS*    PTSUNNY   80  61  53 CALM      30.07R HX  81
$$

ILZ067-068-072-073-078-083-087-091-110100-
SOUTHEAST ILLINOIS

CITY           SKY/WX    TMP DP  RH WIND       PRES   REMARKS
FLORA*         SUNNY     80  55  42 NE6       30.10S HX  80
HARRISBURG*    PTSUNNY   79  62  57 N3        30.09S HX  80
ROBINSON*      SUNNY     81  58  46 NE8       30.11S HX  81
CARMI*         MOSUNNY   81  61  50 N3        30.07S HX  82
$$

ABBREVIATIONS USED IN REMARKS
   TC - TEMPERATURE IN CELSIUS
  WCI - WIND CHILL INDEX
   HX - HEAT INDEX
  VSB - VISIBILITY
$$




USA.gov is the U.S. government's official web portal to all federal, state and local government web resources and services.